CZ-4 DEB, 26140

Orbit data source: Space-Track

CZ-4 DEB, 26140 is space debris in SSO originally from a launch on Thu, 14 Oct 1999 UTC launched from the Taiyaun Space Center, China (TSC). Debris objects in space refer to the collection of defunct objects orbiting the Earth. Examples of debris include non-operational satellites, rocket bodies, and fragments generated from explosions, collisions, or faulty payload assembly.

Loading next visibility...
CZ-4 DEB details
Identifier
26140, 1999-057AC
Orbit
SSO
Last TLE update12 hours ago
Origin
Flag of CNCNSA (CN / PRC)
ManufacturerUnknown
MissionSpacecraft
Bus & MotorUnknown
MassUnknown
Launch date (UTC)
1999-10-14 (25 years ago)
Launch vehicleUnknown
Launch site
Taiyaun Space Center, China (TSC)
Object type
Payload
Rocket body
Debris
Shape & HBRUnknown
Radar Cross SectionSmall (<0.1 m²)

Expand to show TLE details & history

TLE from 12 hours ago
0 CZ-4 DEB
1 26140U 99057AC  24356.08782625  .00010029  00000-0  19222-2 0  9991
2 26140  99.3677 213.1118 0152222 126.3887  32.5631 14.56799336294673
Epoch: 2024-12-21T02:06Z
Definitive object data (Epoch: 2024-12-21T02:06:28.188Z)
Latitude19.81861°
Longitude-85.25983°
Altitude615.649 km
Speed7.601 km/s
True Right ascension02h 26m 00s
True Declination19° 42' 25"
Sunlit
Object was in full shadow at TLE epoch
Visualization TLE readout
Latitude-77.07664°
Longitude137.57219°
Altitude827.827 km
Speed7.387 km/s
Apparent Right ascension23h 57m 51s
Apparent Declination-68° 33' 25"
Sunlit
Object is in daylight
Visualization observer readout
Local Sidereal Time13:13:40
Azimuth166.434° S
Elevation-59.592°
Doppler factor1
Orbital elements
Apogee altitude808.424 km
Perigee altitude592.914 km
Semi-major axis7,078.806 km
Eccentricity0.0152222
Inclination99.3677°
RAAN213.1118°
Arg. of periapsis126.3887°
True anomaly33.5172°
Mean anomaly32.5631°
Eccentric anomaly33.03861°
Mean motion3.64421 °/min
BSTAR0.0019222
Orbital period98.79 mins
Loading maneuver chart data...
Loading historical data...
Loading historical data...
Loading historical data...
Loading historical data...
Loading historical data...
Loading historical data...
Loading historical data...

CZ-4 DEB Visibility forecast

Observer location: undefined°, undefined

Span
Click to sort rows by Start time (UTC) header in descending order
Start Az.
Max El. time (UTC)
Max El. Az.
Max El.
End time (UTC)
End Az.
8 mins2024-12-21 14:41:34.737Z168.278° S2024-12-21 14:45:34.737Z254.382° W44.662°2024-12-21 14:49:34.737Z343.021° N
4 mins2024-12-22 02:43:34.737Z68.922° E2024-12-22 02:45:34.737Z105.516° ESE17.57°2024-12-22 02:47:34.737Z136.426° SSE
5 mins2024-12-22 04:20:34.737Z341.42° N2024-12-22 04:22:34.737Z298.279° NW28.074°2024-12-22 04:25:34.737Z235.112° WSW
6 mins2024-12-22 13:48:34.737Z112.445° ESE2024-12-22 13:51:34.737Z56.607° ENE24.264°2024-12-22 13:54:34.737Z12.406° NNE
|